Time,TemperatureF,DewpointF,PressureIn,WindDirection,WindDirectionDegrees,WindSpeedMPH,WindSpeedGustMPH,Humidity,HourlyPrecipIn,Conditions,Clouds,dailyrainin,SoftwareType,DateUTC
2013-02-26 00:13:00,34.5,26.8,29.62,East,90,10.9,-999.0,73,-99.99,,,0.00,Acu-Link.com,2013-02-26 05:13:00,
2013-02-26 00:28:00,34.3,26.6,29.63,East,90,9.9,-999.0,73,-99.99,,,0.00,Acu-Link.com,2013-02-26 05:28:00,
2013-02-26 00:44:00,34.5,26.8,29.63,East,90,7.3,-999.0,73,-99.99,,,0.00,Acu-Link.com,2013-02-26 05:44:00,
2013-02-26 00:59:00,34.5,26.4,29.62,NE,45,11.9,-999.0,72,-99.99,,,0.00,Acu-Link.com,2013-02-26 05:59:00,
2013-02-26 01:14:00,34.5,26.4,29.61,East,90,11.4,-999.0,72,-99.99,,,0.00,Acu-Link.com,2013-02-26 06:14:00,
2013-02-26 01:29:00,34.3,26.2,29.59,ESE,112,10.9,-999.0,72,-99.99,,,0.00,Acu-Link.com,2013-02-26 06:29:00,
2013-02-26 01:44:00,34.2,26.5,29.58,NE,45,11.9,-999.0,73,-99.99,,,0.00,Acu-Link.com,2013-02-26 06:44:00,
2013-02-26 01:59:00,34.3,26.6,29.58,ENE,67,7.8,-999.0,73,-99.99,,,0.00,Acu-Link.com,2013-02-26 06:59:00,
2013-02-26 02:14:00,34.3,26.2,29.56,NE,45,11.9,-999.0,72,-99.99,,,0.00,Acu-Link.com,2013-02-26 07:14:00,
2013-02-26 02:29:00,34.3,26.2,29.54,NNE,22,8.3,-999.0,72,-99.99,,,0.00,Acu-Link.com,2013-02-26 07:29:00,
2013-02-26 02:44:00,34.2,26.5,29.53,NE,45,11.9,-999.0,73,-99.99,,,0.00,Acu-Link.com,2013-02-26 07:44:00,
2013-02-26 02:59:00,34.2,26.5,29.52,ENE,67,16.6,-999.0,73,-99.99,,,0.00,Acu-Link.com,2013-02-26 07:59:00,
2013-02-26 03:14:00,34.2,26.5,29.52,ENE,67,14.0,-999.0,73,-99.99,,,0.00,Acu-Link.com,2013-02-26 08:14:00,
2013-02-26 03:29:00,34.2,26.5,29.50,East,90,7.3,-999.0,73,-99.99,,,0.00,Acu-Link.com,2013-02-26 08:29:00,
2013-02-26 03:44:00,34.2,26.5,29.49,NE,45,14.5,-999.0,73,-99.99,,,0.00,Acu-Link.com,2013-02-26 08:44:00,
2013-02-26 07:04:00,32.2,28.5,29.40,ENE,67,7.8,-999.0,86,-99.99,,,0.04,Acu-Link.com,2013-02-26 12:04:00,
2013-02-26 07:19:00,32.0,28.9,29.40,NNE,22,9.4,-999.0,88,-99.99,,,0.08,Acu-Link.com,2013-02-26 12:19:00,
2013-02-26 07:34:00,32.0,28.9,29.38,NNE,22,7.8,-999.0,88,-99.99,,,0.12,Acu-Link.com,2013-02-26 12:34:00,
2013-02-26 07:49:00,31.8,28.9,29.37,ENE,67,9.9,-999.0,89,-99.99,,,0.15,Acu-Link.com,2013-02-26 12:49:00,
2013-02-26 08:05:00,31.6,29.0,29.34,ENE,67,10.4,-999.0,90,-99.99,,,0.22,Acu-Link.com,2013-02-26 13:05:00,
2013-02-26 08:20:00,31.6,29.0,29.33,NE,45,7.3,-999.0,90,-99.99,,,0.23,Acu-Link.com,2013-02-26 13:20:00,
2013-02-26 08:35:00,31.6,29.0,29.32,NE,45,13.5,-999.0,90,-99.99,,,0.23,Acu-Link.com,2013-02-26 13:35:00,
2013-02-26 08:50:00,31.8,29.2,29.30,NE,45,9.4,-999.0,90,-99.99,,,0.23,Acu-Link.com,2013-02-26 13:50:00,
2013-02-26 09:05:00,31.8,29.2,29.28,NE,45,14.5,-999.0,90,-99.99,,,0.23,Acu-Link.com,2013-02-26 14:05:00,
2013-02-26 09:20:00,31.8,29.2,29.28,East,90,10.4,-999.0,90,-99.99,,,0.23,Acu-Link.com,2013-02-26 14:20:00,
2013-02-26 09:35:00,32.0,29.4,29.26,ENE,67,7.8,-999.0,90,-99.99,,,0.23,Acu-Link.com,2013-02-26 14:35:00,
2013-02-26 09:50:00,32.4,29.8,29.25,ENE,67,9.4,-999.0,90,-99.99,,,0.23,Acu-Link.com,2013-02-26 14:50:00,
2013-02-26 10:06:00,32.5,29.9,29.31,ENE,67,2.7,-999.0,90,-99.99,,,0.23,Acu-Link.com,2013-02-26 15:06:00,
2013-02-26 10:21:00,32.5,30.2,29.28,ENE,67,5.3,-999.0,91,-99.99,,,0.23,Acu-Link.com,2013-02-26 15:21:00,
2013-02-26 10:36:00,32.5,30.4,29.28,ENE,67,4.7,-999.0,92,-99.99,,,0.23,Acu-Link.com,2013-02-26 15:36:00,
2013-02-26 10:51:00,32.5,30.7,29.28,ENE,67,4.2,-999.0,93,-99.99,,,0.23,Acu-Link.com,2013-02-26 15:51:00,
2013-02-26 11:07:00,32.5,30.7,29.28,East,90,4.2,-999.0,93,-99.99,,,0.23,Acu-Link.com,2013-02-26 16:07:00,
2013-02-26 11:22:00,32.5,30.7,29.25,East,90,4.7,-999.0,93,-99.99,,,0.23,Acu-Link.com,2013-02-26 16:22:00,
2013-02-26 11:37:00,32.9,31.1,29.24,East,90,4.2,-999.0,93,-99.99,,,0.23,Acu-Link.com,2013-02-26 16:37:00,
2013-02-26 11:52:00,33.1,31.3,29.23,East,90,7.8,-999.0,93,-99.99,,,0.23,Acu-Link.com,2013-02-26 16:52:00,
2013-02-26 12:07:00,33.4,31.6,29.22,ENE,67,7.3,-999.0,93,-99.99,,,0.25,Acu-Link.com,2013-02-26 17:07:00,
2013-02-26 12:22:00,33.8,32.0,29.21,ENE,67,4.7,-999.0,93,-99.99,,,0.26,Acu-Link.com,2013-02-26 17:22:00,
2013-02-26 12:37:00,34.2,32.4,29.21,NE,45,8.9,-999.0,93,-99.99,,,0.27,Acu-Link.com,2013-02-26 17:37:00,
2013-02-26 12:52:00,34.9,33.1,29.19,ENE,67,11.9,-999.0,93,-99.99,,,0.27,Acu-Link.com,2013-02-26 17:52:00,
2013-02-26 13:08:00,35.2,33.4,29.18,East,90,10.4,-999.0,93,-99.99,,,0.29,Acu-Link.com,2013-02-26 18:08:00,
2013-02-26 13:23:00,35.6,33.8,29.17,East,90,9.4,-999.0,93,-99.99,,,0.29,Acu-Link.com,2013-02-26 18:23:00,
2013-02-26 13:38:00,36.0,34.2,29.16,ENE,67,5.8,-999.0,93,-99.99,,,0.29,Acu-Link.com,2013-02-26 18:38:00,
2013-02-26 13:53:00,36.1,34.3,29.15,East,90,5.3,-999.0,93,-99.99,,,0.29,Acu-Link.com,2013-02-26 18:53:00,
2013-02-26 14:08:00,36.3,34.5,29.14,NE,45,6.3,-999.0,93,-99.99,,,0.29,Acu-Link.com,2013-02-26 19:08:00,
2013-02-26 14:23:00,36.7,34.9,29.13,ENE,67,8.3,-999.0,93,-99.99,,,0.29,Acu-Link.com,2013-02-26 19:23:00,
2013-02-26 14:39:00,36.9,35.1,29.13,ENE,67,10.9,-999.0,93,-99.99,,,0.29,Acu-Link.com,2013-02-26 19:39:00,
2013-02-26 14:54:00,37.2,35.6,29.12,ENE,67,10.4,-999.0,94,-99.99,,,0.30,Acu-Link.com,2013-02-26 19:54:00,
2013-02-26 15:09:00,37.4,35.8,29.13,ENE,67,8.3,-999.0,94,-99.99,,,0.31,Acu-Link.com,2013-02-26 20:09:00,
2013-02-26 15:24:00,37.8,36.2,29.13,East,90,4.7,-999.0,94,-99.99,,,0.32,Acu-Link.com,2013-02-26 20:24:00,
2013-02-26 15:39:00,37.8,36.5,29.14,ENE,67,4.2,-999.0,95,-99.99,,,0.34,Acu-Link.com,2013-02-26 20:39:00,
2013-02-26 15:54:00,37.8,36.5,29.14,NE,45,4.7,-999.0,95,-99.99,,,0.37,Acu-Link.com,2013-02-26 20:54:00,
2013-02-26 16:09:00,37.9,36.6,29.14,NNE,22,4.2,-999.0,95,-99.99,,,0.39,Acu-Link.com,2013-02-26 21:09:00,
2013-02-26 16:25:00,38.1,36.8,29.14,NNE,22,3.7,-999.0,95,-99.99,,,0.40,Acu-Link.com,2013-02-26 21:25:00,
2013-02-26 16:40:00,37.9,36.6,29.13,NE,45,2.2,-999.0,95,-99.99,,,0.41,Acu-Link.com,2013-02-26 21:40:00,
2013-02-26 16:55:00,37.9,36.6,29.13,ENE,67,4.7,-999.0,95,-99.99,,,0.42,Acu-Link.com,2013-02-26 21:55:00,
2013-02-26 17:10:00,37.9,36.6,29.13,NE,45,3.7,-999.0,95,-99.99,,,0.43,Acu-Link.com,2013-02-26 22:10:00,
2013-02-26 17:26:00,37.8,36.5,29.14,East,90,2.2,-999.0,95,-99.99,,,0.44,Acu-Link.com,2013-02-26 22:26:00,
2013-02-26 17:41:00,37.8,36.5,29.14,NNE,22,2.7,-999.0,95,-99.99,,,0.44,Acu-Link.com,2013-02-26 22:41:00,
2013-02-26 17:56:00,37.6,36.3,29.15,NW,315,3.7,-999.0,95,-99.99,,,0.46,Acu-Link.com,2013-02-26 22:56:00,
2013-02-26 18:12:00,37.6,36.3,29.15,NNE,22,1.7,-999.0,95,-99.99,,,0.46,Acu-Link.com,2013-02-26 23:12:00,
2013-02-26 18:27:00,37.6,36.3,29.16,NNE,22,0.0,-999.0,95,-99.99,,,0.46,Acu-Link.com,2013-02-26 23:27:00,
2013-02-26 18:42:00,37.6,36.3,29.16,NNW,337,0.0,-999.0,95,-99.99,,,0.47,Acu-Link.com,2013-02-26 23:42:00,
2013-02-26 18:58:00,37.4,36.1,29.16,ENE,67,0.0,-999.0,95,-99.99,,,0.48,Acu-Link.com,2013-02-26 23:58:00,
2013-02-26 19:13:00,37.4,36.1,29.17,WNW,292,1.1,-999.0,95,-99.99,,,0.48,Acu-Link.com,2013-02-27 00:13:00,
2013-02-26 19:28:00,37.4,36.4,29.17,NNE,22,0.0,-999.0,96,-99.99,,,0.50,Acu-Link.com,2013-02-27 00:28:00,
2013-02-26 19:43:00,37.4,36.4,29.18,NNE,22,0.0,-999.0,96,-99.99,,,0.51,Acu-Link.com,2013-02-27 00:43:00,
2013-02-26 19:59:00,37.4,36.4,29.18,West,270,0.0,-999.0,96,-99.99,,,0.52,Acu-Link.com,2013-02-27 00:59:00,
2013-02-26 20:14:00,37.6,36.6,29.19,SSW,202,0.0,-999.0,96,-99.99,,,0.53,Acu-Link.com,2013-02-27 01:14:00,
2013-02-26 20:29:00,37.6,36.6,29.19,SSW,202,3.7,-999.0,96,-99.99,,,0.54,Acu-Link.com,2013-02-27 01:29:00,
2013-02-26 20:44:00,37.8,36.8,29.19,SW,225,3.7,-999.0,96,-99.99,,,0.58,Acu-Link.com,2013-02-27 01:44:00,
2013-02-26 21:00:00,38.5,37.5,29.19,SW,225,3.7,-999.0,96,-99.99,,,0.60,Acu-Link.com,2013-02-27 02:00:00,
2013-02-26 21:15:00,39.0,38.0,29.19,SSW,202,3.2,-999.0,96,-99.99,,,0.61,Acu-Link.com,2013-02-27 02:15:00,
2013-02-26 21:30:00,39.9,39.1,29.19,WSW,247,7.8,-999.0,97,-99.99,,,0.62,Acu-Link.com,2013-02-27 02:30:00,
2013-02-26 21:45:00,40.3,39.5,29.19,SSW,202,6.8,-999.0,97,-99.99,,,0.63,Acu-Link.com,2013-02-27 02:45:00,
2013-02-26 22:00:00,40.5,39.5,29.19,WSW,247,7.3,-999.0,96,-99.99,,,0.63,Acu-Link.com,2013-02-27 03:00:00,
2013-02-26 22:15:00,40.5,39.2,29.19,SSW,202,7.3,-999.0,95,-99.99,,,0.63,Acu-Link.com,2013-02-27 03:15:00,
2013-02-26 22:31:00,40.5,38.9,29.20,SW,225,6.3,-999.0,94,-99.99,,,0.63,Acu-Link.com,2013-02-27 03:31:00,
2013-02-26 22:46:00,40.3,38.7,29.20,SW,225,5.8,-999.0,94,-99.99,,,0.63,Acu-Link.com,2013-02-27 03:46:00,
2013-02-26 23:01:00,40.3,38.7,29.20,SSW,202,4.7,-999.0,94,-99.99,,,0.63,Acu-Link.com,2013-02-27 04:01:00,
2013-02-26 23:16:00,40.6,39.0,29.20,SSW,202,6.3,-999.0,94,-99.99,,,0.63,Acu-Link.com,2013-02-27 04:16:00,
2013-02-26 23:31:00,40.6,39.0,29.20,SW,225,8.9,-999.0,94,-99.99,,,0.63,Acu-Link.com,2013-02-27 04:31:00,
2013-02-26 23:46:00,40.8,38.9,29.20,SSW,202,8.9,-999.0,93,-99.99,,,0.63,Acu-Link.com,2013-02-27 04:46:00,